Tracking 27079 objects as of 23-Mar-2023
HD Live streaming from Space Station
objects crossing your sky now

STARLINK-5668

Track STARLINK-5668 now!
10-day predictions
STARLINK-5668 is classified as:


NORAD ID: 55350
Int'l Code: 2023-013V
Perigee: 423.3 km
Apogee: 425.0 km
Inclination: 43.0 °
Period: 92.9 minutes
Semi major axis: 6795 km
RCS: Unknown
Launch date: January 26, 2023
Source: United States (US)
Launch site: AIR FORCE EASTERN TEST RANGE (AFETR)
Your satellite tracking list
Your tracking list is empty




NASA's NSSDC Master Catalog

Two Line Element Set (TLE):
1 55350U 23013V   23081.91667824 -.00879423  00000-0 -16887-1 0  9990
2 55350  42.9997  69.2699 0001259 258.1505 272.8194 15.49888881  1301
Source of the keplerian elements: AFSPC